This is the latest recevied weather packets stored in our database for station/object YT1XN-8. If no packets are shown the sender has not sent any weather packets the latest 10 day(s).
| Time | Temp. | Humidity | Pressure | Rain* | Wind** | Luminosity | Snow |
|---|---|---|---|---|---|---|---|
| 1777023282 | 18.89° C | 51% | 1017.4 hPa | 0 mm | - | - | - |
| 1777023045 | 19.44° C | 52% | 1017.5 hPa | 0 mm | - | - | - |
| 1777022622 | 19.44° C | 52% | 1017.4 hPa | 0 mm | - | - | - |
| 1777021962 | 19.44° C | 54% | 1017.5 hPa | 0 mm | - | - | - |
| 1777021302 | 19.44° C | 57% | 1017.5 hPa | 0 mm | - | - | - |
| 1777020642 | 18.89° C | 56% | 1017.4 hPa | 0 mm | - | - | - |
| 1777019981 | 18.33° C | 58% | 1017.4 hPa | 0 mm | - | - | - |
| 1777019445 | 18.33° C | 56% | 1017.4 hPa | 0 mm | - | - | - |
| 1777019322 | 18.33° C | 57% | 1017.4 hPa | 0 mm | - | - | - |
| 1777018662 | 17.78° C | 57% | 1017.4 hPa | 0 mm | - | - | - |
| 1777018246 | 17.22° C | 59% | 1017.4 hPa | 0 mm | - | - | - |
| 1777018002 | 17.22° C | 59% | 1017.4 hPa | 0 mm | - | - | - |
| 1777017645 | 17.22° C | 58% | 1017.5 hPa | 0 mm | - | - | - |
| 1777017342 | 16.67° C | 60% | 1017.4 hPa | 0 mm | - | - | - |
| 1777016681 | 16.67° C | 60% | 1017.4 hPa | 0 mm | - | - | - |
| 1777016445 | 16.11° C | 60% | 1017.5 hPa | 0 mm | - | - | - |
| 1777016021 | 15.56° C | 59% | 1017.3 hPa | 0 mm | - | - | - |
| 1777015361 | 15° C | 62% | 1017.2 hPa | 0 mm | - | - | - |
| 1777014702 | 14.44° C | 63% | 1017.1 hPa | 0 mm | - | - | - |
| 1777014041 | 13.89° C | 63% | 1017 hPa | 0 mm | - | - | - |
| 1777013381 | 13.33° C | 66% | 1017 hPa | 0 mm | - | - | - |
| 1777012721 | 12.22° C | 66% | 1016.9 hPa | 0 mm | - | - | - |
| 1777012061 | 11.67° C | 70% | 1016.9 hPa | 0 mm | - | - | - |
| 1777011401 | 11.11° C | 71% | 1017 hPa | 0 mm | - | - | - |
| 1777010741 | 10.56° C | 70% | 1016.9 hPa | 0 mm | - | - | - |
* Rain latest hour (hover to see other rain measurements)
** Current wind speed in m/s (hover to see current wind gust speed)